Simultaneous Nadir Overpasses (SNOs) Predictions

Prediction of SNOs between NOAA-15 and METOP-C Satellite Orbit:

Table of predicted SNOs for the next 14.0 days since TLE Epoch: 12/28/2024
Index Date (NOAA-15) Time (NOAA-15) Lat,Lon (NOAA-15) SZA (NOAA-15 ) Date (METOP-C) Time (METOP-C) Lat,Lon (METOP-C) SZA (METOP-C ) Distance(km) Time Diff (sec)
1 12/31/2024 22:00:37 -81.02, 67.60 74.31 12/31/2024 21:59:23 -81.04, 67.72 74.32 2.59 74
2 12/31/2024 22:51:08 81.02,-125.07 105.69 12/31/2024 22:50:04 81.03,-125.03 105.67 1.30 64
3 12/31/2024 23:41:36 -81.02, 42.29 74.32 12/31/2024 23:40:45 -81.03, 42.20 74.35 1.69 51
4 01/01/2025 00:32:07 81.03,-150.38 105.68 01/01/2025 00:31:26 81.03,-150.54 105.65 2.82 41
5 01/01/2025 01:22:35 -81.03, 16.98 74.33 01/01/2025 01:22:06 -81.04, 17.05 74.33 1.55 29
6 01/01/2025 02:13:06 81.03,-175.70 105.67 01/01/2025 02:12:47 81.03,-175.69 105.66 0.38 19
7 01/01/2025 03:03:34 -81.03, -8.32 74.34 01/01/2025 03:03:28 -81.03, -8.46 74.36 2.42 6
8 01/01/2025 03:54:05 81.03, 158.99 105.66 01/01/2025 03:54:08 81.04, 159.16 105.68 3.12 3
9 01/01/2025 04:44:33 -81.03, -33.63 74.35 01/01/2025 04:44:49 -81.04, -33.61 74.34 0.51 16
10 01/01/2025 05:35:04 81.04, 133.67 105.65 01/01/2025 05:35:30 81.03, 133.65 105.65 0.61 26
11 01/01/2025 06:25:32 -81.04, -58.94 74.36 01/01/2025 06:26:10 -81.04, -58.76 74.32 3.28 38
12 01/01/2025 07:16:03 81.04, 108.36 105.64 01/01/2025 07:16:51 81.04, 108.50 105.67 2.42 48
13 01/01/2025 08:06:31 -81.04, -84.25 74.37 01/01/2025 08:07:32 -81.04, -84.28 74.35 0.52 61



Historial Predications of SNOs between NOAA-15 and METOP-C
